Saint Bonnet de Bellac- Haute Vienne - France
Donnes mto: mardi, 03/04/2012
Date Horaire Temp. E. Hum. E. P.atmo. Pluie Vent Direction Direction Ensoleilleme Solaire P. de rose Temp au vent Rafales
03/04/2012 00:00 7,8 C 61 % 1005,0 hPa 0,0 mm 0,0 km/h (0 Bft) O-NO 292 0 min 0 W/m 0,8 C 7,8 C 0,0 km/h (0 Bft)
03/04/2012 00:10 7,8 C 61 % 1005,1 hPa 0,0 mm 0,0 km/h (0 Bft) O-NO 292 0 min 0 W/m 0,8 C 7,8 C 0,0 km/h (0 Bft)
03/04/2012 00:20 7,8 C 63 % 1005,0 hPa 0,0 mm 0,0 km/h (0 Bft) O-NO 292 0 min 0 W/m 1,2 C 7,8 C 0,0 km/h (0 Bft)
03/04/2012 00:30 7,6 C 63 % 1004,9 hPa 0,0 mm 0,0 km/h (0 Bft) O-NO 292 0 min 0 W/m 1,0 C 7,6 C 0,0 km/h (0 Bft)
03/04/2012 00:40 7,5 C 63 % 1004,9 hPa 0,0 mm 0,0 km/h (0 Bft) O-NO 292 0 min 0 W/m 0,9 C 7,5 C 0,0 km/h (0 Bft)
03/04/2012 00:50 7,4 C 63 % 1004,9 hPa 0,0 mm 0,0 km/h (0 Bft) O-NO 292 0 min 0 W/m 0,8 C 7,4 C 0,0 km/h (0 Bft)
03/04/2012 01:00 7,6 C 62 % 1004,9 hPa 0,0 mm 0,0 km/h (0 Bft) SO 225 0 min 0 W/m 0,8 C 7,6 C 0,0 km/h (0 Bft)
03/04/2012 01:10 7,7 C 62 % 1004,9 hPa 0,0 mm 0,0 km/h (0 Bft) SO 225 0 min 0 W/m 0,9 C 7,7 C 0,0 km/h (0 Bft)
03/04/2012 01:20 7,8 C 62 % 1004,9 hPa 0,0 mm 1,1 km/h (1 Bft) SO 225 0 min 0 W/m 1,0 C 7,8 C 1,1 km/h (1 Bft)
03/04/2012 01:30 7,9 C 63 % 1004,9 hPa 0,0 mm 2,5 km/h (1 Bft) S-SO 202 0 min 0 W/m 1,3 C 7,9 C 7,2 km/h (2 Bft)
03/04/2012 01:40 8,3 C 63 % 1004,9 hPa 0,0 mm 0,4 km/h (0 Bft) S-SO 202 0 min 0 W/m 1,7 C 8,3 C 0,4 km/h (0 Bft)
03/04/2012 01:50 8,4 C 64 % 1004,8 hPa 0,0 mm 1,8 km/h (1 Bft) SO 225 0 min 0 W/m 2,0 C 8,4 C 4,3 km/h (1 Bft)
03/04/2012 02:00 8,4 C 64 % 1004,8 hPa 0,0 mm 0,7 km/h (0 Bft) S-SO 202 0 min 0 W/m 2,0 C 8,4 C 6,1 km/h (2 Bft)
03/04/2012 02:10 8,4 C 63 % 1004,7 hPa 0,0 mm 0,0 km/h (0 Bft) S 180 0 min 0 W/m 1,8 C 8,4 C 0,0 km/h (0 Bft)
03/04/2012 02:20 8,3 C 65 % 1004,7 hPa 0,0 mm 0,0 km/h (0 Bft) S-SO 202 0 min 0 W/m 2,1 C 8,3 C 0,0 km/h (0 Bft)
03/04/2012 02:30 8,3 C 65 % 1004,6 hPa 0,0 mm 0,0 km/h (0 Bft) S-SO 202 0 min 0 W/m 2,1 C 8,3 C 0,0 km/h (0 Bft)
03/04/2012 02:40 8,4 C 65 % 1004,7 hPa 0,0 mm 0,0 km/h (0 Bft) SO 225 0 min 0 W/m 2,2 C 8,4 C 0,0 km/h (0 Bft)
03/04/2012 02:50 8,2 C 65 % 1004,5 hPa 0,0 mm 0,0 km/h (0 Bft) SO 225 0 min 0 W/m 2,0 C 8,2 C 0,0 km/h (0 Bft)
03/04/2012 03:02 8,2 C 66 % 1004,5 hPa 0,0 mm 0,0 km/h (0 Bft) S-SO 202 0 min 0 W/m 2,2 C 8,2 C 0,0 km/h (0 Bft)
03/04/2012 03:10 8,1 C 66 % 1004,6 hPa 0,0 mm 0,0 km/h (0 Bft) SO 225 0 min 0 W/m 2,1 C 8,1 C 0,0 km/h (0 Bft)
03/04/2012 03:20 8,0 C 67 % 1004,5 hPa 0,0 mm 1,4 km/h (1 Bft) SO 225 0 min 0 W/m 2,3 C 8,0 C 4,3 km/h (1 Bft)
03/04/2012 03:30 7,9 C 67 % 1004,5 hPa 0,0 mm 0,0 km/h (0 Bft) SO 225 0 min 0 W/m 2,2 C 7,9 C 0,0 km/h (0 Bft)
03/04/2012 03:40 7,6 C 70 % 1004,4 hPa 0,0 mm 3,6 km/h (1 Bft) SO 225 0 min 0 W/m 2,5 C 7,6 C 7,9 km/h (2 Bft)
03/04/2012 03:50 7,5 C 72 % 1004,3 hPa 0,0 mm 4,7 km/h (1 Bft) S 180 0 min 0 W/m 2,8 C 7,0 C 7,2 km/h (2 Bft)
03/04/2012 04:00 7,5 C 72 % 1004,3 hPa 0,0 mm 1,4 km/h (1 Bft) SO 225 0 min 0 W/m 2,8 C 7,5 C 4,3 km/h (1 Bft)
03/04/2012 04:10 7,4 C 73 % 1004,4 hPa 0,0 mm 2,9 km/h (1 Bft) S-SO 202 0 min 0 W/m 2,9 C 7,4 C 10,4 km/h (2 Bft)
03/04/2012 04:20 7,5 C 73 % 1004,3 hPa 0,0 mm 3,6 km/h (1 Bft) S-SO 202 0 min 0 W/m 3,0 C 7,5 C 4,3 km/h (1 Bft)
03/04/2012 04:30 7,4 C 73 % 1004,1 hPa 0,0 mm 2,2 km/h (1 Bft) SO 225 0 min 0 W/m 2,9 C 7,4 C 4,0 km/h (1 Bft)
03/04/2012 04:40 7,5 C 74 % 1004,1 hPa 0,0 mm 0,7 km/h (0 Bft) SO 225 0 min 0 W/m 3,2 C 7,5 C 3,6 km/h (1 Bft)
03/04/2012 04:50 7,6 C 76 % 1004,1 hPa 0,0 mm 5,0 km/h (1 Bft) O-SO 247 0 min 0 W/m 3,6 C 7,0 C 7,9 km/h (2 Bft)
03/04/2012 05:00 7,8 C 75 % 1004,0 hPa 0,0 mm 5,4 km/h (2 Bft) O-SO 247 0 min 0 W/m 3,7 C 7,1 C 8,6 km/h (2 Bft)
03/04/2012 05:10 7,7 C 75 % 1003,9 hPa 0,0 mm 7,9 km/h (2 Bft) SO 225 0 min 0 W/m 3,6 C 6,3 C 11,9 km/h (2 Bft)
03/04/2012 05:20 7,5 C 75 % 1003,9 hPa 0,0 mm 5,8 km/h (2 Bft) S-SO 202 0 min 0 W/m 3,4 C 6,7 C 5,8 km/h (2 Bft)
03/04/2012 05:30 7,2 C 76 % 1003,8 hPa 0,0 mm 6,8 km/h (2 Bft) S-SO 202 0 min 0 W/m 3,3 C 6,0 C 10,4 km/h (2 Bft)
03/04/2012 05:40 6,9 C 77 % 1003,8 hPa 0,0 mm 3,6 km/h (1 Bft) SO 225 0 min 0 W/m 3,2 C 6,9 C 7,2 km/h (2 Bft)
03/04/2012 05:50 6,6 C 77 % 1003,9 hPa 0,0 mm 3,2 km/h (1 Bft) S-SO 202 0 min 0 W/m 2,9 C 6,6 C 4,3 km/h (1 Bft)
03/04/2012 06:00 6,2 C 78 % 1003,9 hPa 0,0 mm 2,2 km/h (1 Bft) SO 225 0 min 0 W/m 2,7 C 6,2 C 4,3 km/h (1 Bft)
03/04/2012 06:10 5,9 C 79 % 1003,9 hPa 0,0 mm 1,8 km/h (1 Bft) SO 225 0 min 0 W/m 2,5 C 5,9 C 8,3 km/h (2 Bft)
03/04/2012 06:20 5,7 C 80 % 1003,8 hPa 0,0 mm 0,4 km/h (0 Bft) SO 225 0 min 0 W/m 2,5 C 5,7 C 3,2 km/h (1 Bft)
03/04/2012 06:30 5,4 C 80 % 1003,8 hPa 0,0 mm 0,4 km/h (0 Bft) O 270 0 min 0 W/m 2,2 C 5,4 C 0,4 km/h (0 Bft)
03/04/2012 06:40 5,2 C 81 % 1003,9 hPa 0,0 mm 0,4 km/h (0 Bft) SO 225 0 min 0 W/m 2,2 C 5,2 C 4,0 km/h (1 Bft)
03/04/2012 06:50 5,0 C 82 % 1003,9 hPa 0,0 mm 0,0 km/h (0 Bft) SO 225 0 min 0 W/m 2,2 C 5,0 C 0,0 km/h (0 Bft)
03/04/2012 07:00 4,8 C 83 % 1003,9 hPa 0,0 mm 2,2 km/h (1 Bft) S-SE 157 0 min 0 W/m 2,2 C 4,8 C 7,9 km/h (2 Bft)
03/04/2012 07:10 4,6 C 83 % 1004,0 hPa 0,0 mm 1,4 km/h (1 Bft) S-SO 202 0 min 0 W/m 2,0 C 4,6 C 4,3 km/h (1 Bft)
03/04/2012 07:20 4,5 C 84 % 1004,0 hPa 0,0 mm 4,7 km/h (1 Bft) S 180 0 min 0 W/m 2,0 C 3,6 C 7,6 km/h (2 Bft)
03/04/2012 07:30 4,4 C 85 % 1004,0 hPa 0,0 mm 1,4 km/h (1 Bft) S-SO 202 0 min 0 W/m 2,1 C 4,4 C 3,6 km/h (1 Bft)
03/04/2012 07:40 4,4 C 85 % 1003,9 hPa 0,0 mm 0,7 km/h (0 Bft) S 180 0 min 0 W/m 2,1 C 4,4 C 4,0 km/h (1 Bft)
03/04/2012 07:50 4,4 C 86 % 1004,1 hPa 0,0 mm 0,4 km/h (0 Bft) SO 225 2 min 0 W/m 2,3 C 4,4 C 4,0 km/h (1 Bft)
03/04/2012 08:00 4,6 C 87 % 1004,1 hPa 0,0 mm 1,8 km/h (1 Bft) SO 225 2 min 0 W/m 2,6 C 4,6 C 3,6 km/h (1 Bft)
03/04/2012 08:10 4,6 C 87 % 1004,1 hPa 0,0 mm 2,9 km/h (1 Bft) S-SO 202 2 min 0 W/m 2,6 C 4,6 C 6,8 km/h (2 Bft)
03/04/2012 08:20 4,8 C 88 % 1004,2 hPa 0,0 mm 5,0 km/h (1 Bft) O-SO 247 2 min 0 W/m 3,0 C 3,9 C 5,0 km/h (1 Bft)
03/04/2012 08:30 5,3 C 89 % 1004,3 hPa 0,0 mm 6,1 km/h (2 Bft) SO 225 2 min 0 W/m 3,6 C 4,0 C 10,1 km/h (2 Bft)
03/04/2012 08:40 5,8 C 90 % 1004,3 hPa 0,0 mm 4,3 km/h (1 Bft) S-SO 202 2 min 0 W/m 4,3 C 5,8 C 7,6 km/h (2 Bft)
03/04/2012 08:50 6,2 C 90 % 1004,3 hPa 0,0 mm 8,3 km/h (2 Bft) S 180 2 min 0 W/m 4,7 C 4,5 C 10,4 km/h (2 Bft)
03/04/2012 09:00 6,4 C 90 % 1004,4 hPa 0,0 mm 8,6 km/h (2 Bft) SO 225 2 min 0 W/m 4,9 C 4,6 C 14,4 km/h (3 Bft)
03/04/2012 09:10 6,6 C 89 % 1004,5 hPa 0,0 mm 3,6 km/h (1 Bft) S 180 2 min 0 W/m 4,9 C 6,6 C 7,6 km/h (2 Bft)
03/04/2012 09:20 6,8 C 89 % 1004,6 hPa 0,0 mm 6,8 km/h (2 Bft) S 180 2 min 0 W/m 5,1 C 5,6 C 9,4 km/h (2 Bft)
03/04/2012 09:30 6,9 C 89 % 1004,6 hPa 0,0 mm 5,0 km/h (1 Bft) O-SO 247 2 min 0 W/m 5,2 C 6,2 C 5,0 km/h (1 Bft)
03/04/2012 09:40 7,2 C 89 % 1004,6 hPa 0,0 mm 8,6 km/h (2 Bft) SO 225 2 min 0 W/m 5,5 C 5,6 C 9,4 km/h (2 Bft)
03/04/2012 09:50 7,7 C 88 % 1004,7 hPa 0,0 mm 4,3 km/h (1 Bft) SO 225 2 min 0 W/m 5,8 C 7,7 C 6,8 km/h (2 Bft)
03/04/2012 10:00 8,2 C 87 % 1004,8 hPa 0,0 mm 5,8 km/h (2 Bft) S-SO 202 2 min 0 W/m 6,2 C 7,5 C 14,4 km/h (3 Bft)
03/04/2012 10:10 8,8 C 84 % 1004,9 hPa 0,0 mm 4,0 km/h (1 Bft) S-SO 202 2 min 0 W/m 6,2 C 8,8 C 4,0 km/h (1 Bft)
03/04/2012 10:20 9,3 C 81 % 1005,1 hPa 0,0 mm 7,9 km/h (2 Bft) SO 225 2 min 0 W/m 6,2 C 8,2 C 13,3 km/h (3 Bft)
03/04/2012 10:30 9,7 C 80 % 1005,3 hPa 0,0 mm 2,9 km/h (1 Bft) O-SO 247 2 min 0 W/m 6,4 C 9,7 C 6,5 km/h (2 Bft)
03/04/2012 10:40 10,2 C 78 % 1005,4 hPa 0,0 mm 4,0 km/h (1 Bft) SO 225 2 min 0 W/m 6,5 C 10,2 C 7,2 km/h (2 Bft)
03/04/2012 10:50 10,6 C 76 % 1005,4 hPa 0,0 mm 4,3 km/h (1 Bft) SO 225 2 min 0 W/m 6,5 C 10,6 C 8,6 km/h (2 Bft)
03/04/2012 11:00 10,9 C 76 % 1005,5 hPa 0,0 mm 5,8 km/h (2 Bft) S-SO 202 2 min 0 W/m 6,8 C 10,9 C 6,1 km/h (2 Bft)
03/04/2012 11:10 11,3 C 73 % 1005,6 hPa 0,0 mm 6,5 km/h (2 Bft) O-SO 247 2 min 0 W/m 6,6 C 11,3 C 8,6 km/h (2 Bft)
03/04/2012 11:20 11,8 C 73 % 1005,7 hPa 0,0 mm 5,4 km/h (2 Bft) SO 225 2 min 0 W/m 7,1 C 11,8 C 7,9 km/h (2 Bft)
03/04/2012 11:30 12,2 C 72 % 1005,7 hPa 0,0 mm 10,8 km/h (2 Bft) S 180 2 min 0 W/m 7,3 C 12,2 C 13,7 km/h (3 Bft)
03/04/2012 11:40 12,3 C 71 % 1005,6 hPa 0,0 mm 10,4 km/h (2 Bft) S-SO 202 2 min 0 W/m 7,2 C 12,3 C 19,1 km/h (3 Bft)
03/04/2012 11:50 12,5 C 69 % 1005,7 hPa 0,0 mm 8,6 km/h (2 Bft) S-SO 202 2 min 0 W/m 7,0 C 12,5 C 18,0 km/h (3 Bft)
03/04/2012 12:00 12,5 C 68 % 1005,7 hPa 0,0 mm 7,9 km/h (2 Bft) S-SO 202 2 min 0 W/m 6,8 C 12,5 C 11,5 km/h (2 Bft)
03/04/2012 12:10 12,4 C 68 % 1005,7 hPa 0,0 mm 10,1 km/h (2 Bft) S-SO 202 2 min 0 W/m 6,7 C 12,4 C 13,0 km/h (3 Bft)
03/04/2012 12:20 12,9 C 64 % 1005,7 hPa 0,0 mm 12,6 km/h (3 Bft) SO 225 2 min 0 W/m 6,3 C 12,9 C 19,4 km/h (3 Bft)
03/04/2012 12:30 12,7 C 66 % 1005,7 hPa 0,0 mm 10,4 km/h (2 Bft) S-SO 202 2 min 0 W/m 6,5 C 12,7 C 10,4 km/h (2 Bft)
03/04/2012 12:40 12,3 C 65 % 1005,7 hPa 0,0 mm 10,4 km/h (2 Bft) SO 225 2 min 0 W/m 5,9 C 12,3 C 18,7 km/h (3 Bft)
03/04/2012 12:50 12,4 C 65 % 1005,7 hPa 0,0 mm 9,4 km/h (2 Bft) SO 225 2 min 0 W/m 6,0 C 12,4 C 15,8 km/h (3 Bft)
03/04/2012 13:00 12,3 C 63 % 1005,7 hPa 0,0 mm 8,3 km/h (2 Bft) SO 225 2 min 0 W/m 5,5 C 12,3 C 13,7 km/h (3 Bft)
03/04/2012 13:10 12,1 C 64 % 1005,5 hPa 0,0 mm 5,0 km/h (1 Bft) S-SO 202 2 min 0 W/m 5,5 C 12,1 C 11,2 km/h (2 Bft)
03/04/2012 13:20 12,4 C 64 % 1005,5 hPa 0,0 mm 8,3 km/h (2 Bft) SO 225 2 min 0 W/m 5,8 C 12,4 C 10,4 km/h (2 Bft)
03/04/2012 13:30 12,3 C 64 % 1005,4 hPa 0,0 mm 9,0 km/h (2 Bft) SO 225 2 min 0 W/m 5,7 C 12,3 C 12,2 km/h (2 Bft)
03/04/2012 13:40 12,1 C 64 % 1005,6 hPa 0,0 mm 6,8 km/h (2 Bft) S-SO 202 2 min 0 W/m 5,5 C 12,1 C 9,7 km/h (2 Bft)
03/04/2012 13:50 12,3 C 60 % 1005,4 hPa 0,0 mm 9,4 km/h (2 Bft) S-SO 202 2 min 0 W/m 4,8 C 12,3 C 14,8 km/h (3 Bft)
03/04/2012 14:00 12,2 C 61 % 1005,4 hPa 0,0 mm 4,3 km/h (1 Bft) S 180 2 min 0 W/m 4,9 C 12,2 C 9,7 km/h (2 Bft)
03/04/2012 14:10 12,2 C 61 % 1005,3 hPa 0,0 mm 5,4 km/h (2 Bft) S-SO 202 2 min 0 W/m 4,9 C 12,2 C 9,7 km/h (2 Bft)
03/04/2012 14:20 12,3 C 65 % 1005,1 hPa 0,0 mm 5,4 km/h (2 Bft) S-SO 202 2 min 0 W/m 5,9 C 12,3 C 9,7 km/h (2 Bft)
03/04/2012 14:30 13,1 C 62 % 1005,1 hPa 0,0 mm 6,5 km/h (2 Bft) S-SO 202 2 min 0 W/m 6,0 C 13,1 C 9,0 km/h (2 Bft)
03/04/2012 14:40 13,6 C 57 % 1005,1 hPa 0,0 mm 8,6 km/h (2 Bft) S 180 2 min 0 W/m 5,2 C 13,6 C 11,5 km/h (2 Bft)
03/04/2012 14:50 13,8 C 56 % 1005,0 hPa 0,0 mm 5,8 km/h (2 Bft) O-SO 247 2 min 0 W/m 5,2 C 13,8 C 6,1 km/h (2 Bft)
03/04/2012 15:00 13,7 C 55 % 1004,9 hPa 0,0 mm 4,3 km/h (1 Bft) SO 225 2 min 0 W/m 4,8 C 13,7 C 7,2 km/h (2 Bft)
03/04/2012 15:10 13,6 C 57 % 1004,9 hPa 0,0 mm 0,0 km/h (0 Bft) N 360 2 min 0 W/m 5,2 C 13,6 C 0,0 km/h (0 Bft)
03/04/2012 15:20 14,2 C 60 % 1004,9 hPa 0,0 mm 2,9 km/h (1 Bft) S-SO 202 2 min 0 W/m 6,5 C 14,2 C 6,5 km/h (2 Bft)
03/04/2012 15:30 14,8 C 53 % 1004,8 hPa 0,0 mm 10,1 km/h (2 Bft) SO 225 2 min 0 W/m 5,3 C 14,8 C 11,9 km/h (2 Bft)
03/04/2012 15:40 14,7 C 52 % 1004,7 hPa 0,0 mm 9,0 km/h (2 Bft) SO 225 2 min 0 W/m 5,0 C 14,7 C 13,0 km/h (3 Bft)
03/04/2012 15:50 14,9 C 54 % 1004,6 hPa 0,0 mm 7,9 km/h (2 Bft) S-SO 202 2 min 0 W/m 5,7 C 14,9 C 12,6 km/h (3 Bft)
03/04/2012 16:00 15,1 C 52 % 1004,6 hPa 0,0 mm 8,6 km/h (2 Bft) SO 225 2 min 0 W/m 5,3 C 15,1 C 10,8 km/h (2 Bft)
03/04/2012 16:10 14,6 C 55 % 1004,5 hPa 0,0 mm 4,3 km/h (1 Bft) S-SO 202 2 min 0 W/m 5,7 C 14,6 C 8,3 km/h (2 Bft)
03/04/2012 16:20 14,4 C 56 % 1004,3 hPa 0,0 mm 8,3 km/h (2 Bft) O-SO 247 2 min 0 W/m 5,7 C 14,4 C 14,0 km/h (3 Bft)
03/04/2012 16:30 14,4 C 55 % 1004,3 hPa 0,0 mm 9,0 km/h (2 Bft) S 180 2 min 0 W/m 5,5 C 14,4 C 13,0 km/h (3 Bft)
03/04/2012 16:40 14,6 C 56 % 1004,2 hPa 0,0 mm 10,4 km/h (2 Bft) S-SO 202 2 min 0 W/m 5,9 C 14,6 C 11,9 km/h (2 Bft)
03/04/2012 16:50 14,6 C 56 % 1004,2 hPa 0,0 mm 8,6 km/h (2 Bft) O 270 2 min 0 W/m 5,9 C 14,6 C 9,4 km/h (2 Bft)
03/04/2012 17:00 14,8 C 56 % 1004,1 hPa 0,0 mm 3,6 km/h (1 Bft) SO 225 2 min 0 W/m 6,1 C 14,8 C 7,2 km/h (2 Bft)
03/04/2012 17:10 14,5 C 55 % 1004,0 hPa 0,0 mm 6,8 km/h (2 Bft) SO 225 2 min 0 W/m 5,6 C 14,5 C 10,8 km/h (2 Bft)
03/04/2012 17:20 14,1 C 54 % 1004,0 hPa 0,0 mm 4,7 km/h (1 Bft) SO 225 2 min 0 W/m 4,9 C 14,1 C 9,4 km/h (2 Bft)
03/04/2012 17:30 13,9 C 57 % 1003,8 hPa 0,0 mm 3,2 km/h (1 Bft) SO 225 2 min 0 W/m 5,5 C 13,9 C 6,5 km/h (2 Bft)
03/04/2012 17:40 14,2 C 54 % 1003,8 hPa 0,0 mm 11,2 km/h (2 Bft) O-SO 247 2 min 0 W/m 5,0 C 14,2 C 28,1 km/h (5 Bft)
03/04/2012 17:50 14,4 C 54 % 1003,9 hPa 0,0 mm 11,2 km/h (2 Bft) N 360 2 min 0 W/m 5,2 C 14,4 C 11,2 km/h (2 Bft)
03/04/2012 18:00 14,4 C 54 % 1003,7 hPa 0,0 mm 8,6 km/h (2 Bft) SO 225 2 min 0 W/m 5,2 C 14,4 C 8,6 km/h (2 Bft)
03/04/2012 18:10 14,5 C 51 % 1003,8 hPa 0,0 mm 10,1 km/h (2 Bft) SO 225 2 min 0 W/m 4,5 C 14,5 C 11,9 km/h (2 Bft)
03/04/2012 18:20 14,2 C 54 % 1003,8 hPa 0,0 mm 7,2 km/h (2 Bft) S-SO 202 2 min 0 W/m 5,0 C 14,2 C 9,0 km/h (2 Bft)
03/04/2012 18:30 13,9 C 56 % 1003,8 hPa 0,0 mm 6,5 km/h (2 Bft) O-SO 247 2 min 0 W/m 5,3 C 13,9 C 11,2 km/h (2 Bft)
03/04/2012 18:40 13,6 C 56 % 1003,9 hPa 0,0 mm 6,5 km/h (2 Bft) N 360 2 min 0 W/m 5,0 C 13,6 C 6,5 km/h (2 Bft)
03/04/2012 18:50 13,4 C 57 % 1003,9 hPa 0,0 mm 2,9 km/h (1 Bft) SO 225 2 min 0 W/m 5,1 C 13,4 C 7,2 km/h (2 Bft)
03/04/2012 19:00 13,3 C 59 % 1004,1 hPa 0,0 mm 5,0 km/h (1 Bft) O-SO 247 2 min 0 W/m 5,5 C 13,3 C 15,5 km/h (3 Bft)
03/04/2012 19:10 12,9 C 60 % 1004,1 hPa 0,0 mm 4,3 km/h (1 Bft) SO 225 2 min 0 W/m 5,3 C 12,9 C 11,9 km/h (2 Bft)
03/04/2012 19:20 12,8 C 61 % 1004,1 hPa 0,0 mm 5,0 km/h (1 Bft) S-SO 202 2 min 0 W/m 5,5 C 12,8 C 7,9 km/h (2 Bft)
03/04/2012 19:30 12,6 C 61 % 1004,1 hPa 0,0 mm 5,4 km/h (2 Bft) S-SO 202 2 min 0 W/m 5,3 C 12,6 C 8,6 km/h (2 Bft)
03/04/2012 19:40 12,4 C 63 % 1004,2 hPa 0,0 mm 2,9 km/h (1 Bft) O-SO 247 2 min 0 W/m 5,6 C 12,4 C 6,1 km/h (2 Bft)
03/04/2012 19:50 12,3 C 63 % 1004,4 hPa 0,0 mm 1,8 km/h (1 Bft) O-SO 247 2 min 0 W/m 5,5 C 12,3 C 2,9 km/h (1 Bft)
03/04/2012 20:00 12,1 C 62 % 1004,5 hPa 0,0 mm 4,7 km/h (1 Bft) SO 225 2 min 0 W/m 5,0 C 12,1 C 9,4 km/h (2 Bft)
03/04/2012 20:10 11,8 C 63 % 1004,5 hPa 0,0 mm 2,9 km/h (1 Bft) O-SO 247 2 min 0 W/m 5,0 C 11,8 C 6,8 km/h (2 Bft)
03/04/2012 20:20 11,4 C 64 % 1004,6 hPa 0,0 mm 0,0 km/h (0 Bft) O-SO 247 0 min 0 W/m 4,8 C 11,4 C 0,0 km/h (0 Bft)
03/04/2012 20:30 11,1 C 64 % 1004,6 hPa 0,0 mm 5,0 km/h (1 Bft) O-SO 247 0 min 0 W/m 4,6 C 11,1 C 9,7 km/h (2 Bft)
03/04/2012 20:40 10,8 C 65 % 1004,7 hPa 0,0 mm 5,8 km/h (2 Bft) SO 225 0 min 0 W/m 4,5 C 10,8 C 7,2 km/h (2 Bft)
03/04/2012 20:50 10,4 C 65 % 1004,9 hPa 0,0 mm 5,8 km/h (2 Bft) SO 225 0 min 0 W/m 4,1 C 10,4 C 8,3 km/h (2 Bft)
03/04/2012 21:00 10,3 C 66 % 1005,0 hPa 0,0 mm 4,7 km/h (1 Bft) S-SO 202 0 min 0 W/m 4,2 C 10,3 C 8,3 km/h (2 Bft)
03/04/2012 21:10 10,3 C 67 % 1005,2 hPa 0,0 mm 0,4 km/h (0 Bft) O-SO 247 0 min 0 W/m 4,4 C 10,3 C 0,4 km/h (0 Bft)
03/04/2012 21:20 10,1 C 67 % 1005,4 hPa 0,0 mm 0,4 km/h (0 Bft) O-SO 247 0 min 0 W/m 4,3 C 10,1 C 4,0 km/h (1 Bft)
03/04/2012 21:30 10,1 C 66 % 1005,5 hPa 0,0 mm 3,2 km/h (1 Bft) S 180 0 min 0 W/m 4,0 C 10,1 C 3,6 km/h (1 Bft)
03/04/2012 21:40 10,1 C 65 % 1005,6 hPa 0,0 mm 4,0 km/h (1 Bft) SO 225 0 min 0 W/m 3,8 C 10,1 C 6,5 km/h (2 Bft)
03/04/2012 21:50 10,0 C 65 % 1005,7 hPa 0,0 mm 1,8 km/h (1 Bft) O-SO 247 0 min 0 W/m 3,7 C 10,0 C 4,7 km/h (1 Bft)
03/04/2012 22:00 9,9 C 64 % 1005,9 hPa 0,0 mm 4,3 km/h (1 Bft) S-SO 202 0 min 0 W/m 3,4 C 9,9 C 10,8 km/h (2 Bft)
03/04/2012 22:10 9,8 C 65 % 1006,1 hPa 0,0 mm 3,6 km/h (1 Bft) SO 225 0 min 0 W/m 3,5 C 9,8 C 7,6 km/h (2 Bft)
03/04/2012 22:20 9,8 C 68 % 1006,2 hPa 0,0 mm 3,2 km/h (1 Bft) SO 225 0 min 0 W/m 4,2 C 9,8 C 7,6 km/h (2 Bft)
03/04/2012 22:30 9,5 C 69 % 1006,2 hPa 0,0 mm 2,2 km/h (1 Bft) SO 225 0 min 0 W/m 4,1 C 9,5 C 4,3 km/h (1 Bft)
03/04/2012 22:40 9,3 C 71 % 1006,3 hPa 0,0 mm 2,9 km/h (1 Bft) O 270 0 min 0 W/m 4,3 C 9,3 C 9,7 km/h (2 Bft)
03/04/2012 22:50 8,9 C 72 % 1006,4 hPa 0,0 mm 2,5 km/h (1 Bft) SO 225 0 min 0 W/m 4,1 C 8,9 C 4,0 km/h (1 Bft)
03/04/2012 23:00 8,5 C 73 % 1006,5 hPa 0,0 mm 1,8 km/h (1 Bft) S-SO 202 0 min 0 W/m 3,9 C 8,5 C 4,0 km/h (1 Bft)
03/04/2012 23:10 8,2 C 74 % 1006,6 hPa 0,0 mm 1,8 km/h (1 Bft) O 270 0 min 0 W/m 3,8 C 8,2 C 4,3 km/h (1 Bft)
03/04/2012 23:20 7,8 C 75 % 1006,7 hPa 0,0 mm 2,5 km/h (1 Bft) S-SO 202 0 min 0 W/m 3,7 C 7,8 C 4,0 km/h (1 Bft)
03/04/2012 23:30 7,4 C 77 % 1006,7 hPa 0,0 mm 6,5 km/h (2 Bft) SO 225 0 min 0 W/m 3,6 C 6,3 C 9,7 km/h (2 Bft)
03/04/2012 23:40 7,3 C 78 % 1006,7 hPa 0,0 mm 1,8 km/h (1 Bft) SO 225 0 min 0 W/m 3,7 C 7,3 C 8,6 km/h (2 Bft)
03/04/2012 23:50 7,3 C 79 % 1006,8 hPa 0,0 mm 4,7 km/h (1 Bft) SO 225 0 min 0 W/m 3,9 C 6,8 C 8,6 km/h (2 Bft)
_ Min-Heure 07:50 18:10 18:00 - 20:20 - - - - 00:10 07:20 20:20
Minimum _ 4,4 C 51 % 1003,7 hPa - 0,0 km/h (0 Bft) - - - - 0,8 C 3,6 C 0,0 km/h (0 Bft)
_ Max-Heure 16:00 09:00 23:50 23:50 12:20 - - 20:10 23:50 11:30 16:00 17:40
Maximum _ 15,1 C 90 % 1006,8 hPa 0,0 mm 12,6 km/h
SO (3 Bft)
- - 2 min 0 W/m 7,3 C 15,1 C 28,1 km/h
O-SO (5 Bft)
Moyenne _ 9,9 C 69 % 1004,8 hPa #0,0 mm 4,4 km/h (1 Bft) SO - #2:30 h 0 W/m 4,2 C 9,7 C 7,4 km/h (2 Bft)
Saint Bonnet de Bellac- Haute Vienne - France